SAS7405 ENBR-GCTS

Flight info

Callsign SAS7405
Flight time 5h 13m
Altitude 34000
Route EPOTU DCT RIGVU DCT RIBEL/N0456F350 UP16 NOKIN N862 KARNO/N0455F340 DCT ALHUP DCT ABWIV DCT PACSE DCT TONQU DCT SALCO/N0462F350 DCT IBISU DCT BALDA DCT ABUPI DCT BEXAL/N0457F370 UN866 KONBA
Aircraft B738/M-SDE2E3FGHIRWXY/LB1

Departure

Time 2026-04-27 05:47
Airport Bergen Airport, Flesland (ENBR)

Arrival

Time 2026-04-27 11:00
Airport Tenerife Sur Airport (GCTS)
Time Latitude Longitude Altitude Speed Heading
2026-04-27 05:21 60.28933 5.22541 174 ft 0 kts 108°
2026-04-27 05:39 60.28933 5.22539 174 ft 2 kts 108°
2026-04-27 05:39 60.28941 5.22491 174 ft 4 kts 110°
2026-04-27 05:39 60.28948 5.22449 174 ft 2 kts 108°
2026-04-27 05:40 60.28956 5.22401 174 ft 4 kts 123°
2026-04-27 05:40 60.28971 5.22382 174 ft 4 kts 171°
2026-04-27 05:40 60.28998 5.22374 175 ft 3 kts 171°
2026-04-27 05:40 60.29001 5.22373 175 ft 1 kts 171°
2026-04-27 05:41 60.29001 5.22372 175 ft 0 kts 171°
2026-04-27 05:42 60.29000 5.22373 175 ft 3 kts 171°
2026-04-27 05:42 60.28948 5.22348 173 ft 14 kts 219°
2026-04-27 05:43 60.28841 5.22305 169 ft 17 kts 168°
2026-04-27 05:43 60.28725 5.22348 168 ft 18 kts 170°
2026-04-27 05:43 60.28576 5.22396 165 ft 22 kts 172°
2026-04-27 05:43 60.28427 5.22444 161 ft 21 kts 170°
2026-04-27 05:44 60.28283 5.22493 157 ft 21 kts 171°
2026-04-27 05:44 60.28122 5.22544 152 ft 24 kts 176°
2026-04-27 05:44 60.28057 5.22433 151 ft 0 kts 261°
2026-04-27 05:45 60.28053 5.22378 152 ft 11 kts 261°
2026-04-27 05:45 60.28102 5.22231 152 ft 17 kts 349°
2026-04-27 05:45 60.28166 5.22210 152 ft 0 kts 351°
2026-04-27 05:46 60.28350 5.22145 154 ft 62 kts 351°
2026-04-27 05:46 60.28998 5.21930 162 ft 125 kts 350°
2026-04-27 05:46 60.30046 5.21581 172 ft 176 kts 350°
2026-04-27 05:46 60.31329 5.21131 633 ft 191 kts 350°
2026-04-27 05:47 60.32606 5.20721 1652 ft 181 kts 351°
2026-04-27 05:47 60.33868 5.20317 2403 ft 190 kts 351°
2026-04-27 05:47 60.35257 5.19866 2703 ft 215 kts 351°
2026-04-27 05:47 60.36814 5.19352 2930 ft 238 kts 351°
2026-04-27 05:48 60.38523 5.18783 3229 ft 261 kts 351°
2026-04-27 05:48 60.40393 5.18148 3569 ft 284 kts 351°
2026-04-27 05:48 60.42402 5.17457 4039 ft 302 kts 350°
2026-04-27 05:48 60.44484 5.16736 4528 ft 296 kts 349°
2026-04-27 05:49 60.46340 5.15389 4883 ft 276 kts 326°
2026-04-27 05:49 60.47645 5.12704 5168 ft 265 kts 301°
2026-04-27 05:49 60.48360 5.09301 5429 ft 263 kts 284°
2026-04-27 05:49 60.48499 5.05599 5669 ft 266 kts 264°
2026-04-27 05:50 60.48120 5.01938 5936 ft 268 kts 246°
2026-04-27 05:50 60.46974 4.98995 6178 ft 270 kts 216°
2026-04-27 05:50 60.45249 4.97545 6422 ft 271 kts 188°
2026-04-27 05:50 60.43366 4.97574 6713 ft 272 kts 174°
2026-04-27 05:51 60.41484 4.97991 6976 ft 273 kts 173°
2026-04-27 05:51 60.39596 4.98436 7233 ft 274 kts 174°
2026-04-27 05:51 60.37696 4.98872 7490 ft 275 kts 174°
2026-04-27 05:51 60.35788 4.99296 7765 ft 277 kts 174°
2026-04-27 05:52 60.33866 4.99709 8033 ft 278 kts 174°
2026-04-27 05:52 60.31935 5.00114 8309 ft 280 kts 174°
2026-04-27 05:52 60.29992 5.00518 8577 ft 282 kts 174°
2026-04-27 05:52 60.28035 5.00923 8869 ft 283 kts 174°
2026-04-27 05:53 60.26080 5.01513 9153 ft 285 kts 169°
2026-04-27 05:53 60.24130 5.02313 9451 ft 287 kts 168°
2026-04-27 05:53 60.22167 5.03129 9748 ft 289 kts 169°
2026-04-27 05:53 60.20190 5.03931 10046 ft 291 kts 169°
2026-04-27 05:54 60.18185 5.04490 10313 ft 293 kts 184°
2026-04-27 05:54 60.16240 5.03425 10563 ft 292 kts 212°
2026-04-27 05:54 60.14736 5.00771 10819 ft 289 kts 236°
2026-04-27 05:54 60.13674 4.97352 11100 ft 288 kts 242°
2026-04-27 05:55 60.12690 4.93839 11389 ft 289 kts 242°
2026-04-27 05:55 60.11713 4.90311 11665 ft 290 kts 242°
2026-04-27 05:55 60.10727 4.86787 11946 ft 290 kts 242°
2026-04-27 05:55 60.09733 4.83264 12227 ft 291 kts 242°
2026-04-27 05:56 60.08731 4.79745 12512 ft 291 kts 242°
2026-04-27 05:56 60.07721 4.76214 12804 ft 292 kts 241°
2026-04-27 05:56 60.06707 4.72688 13098 ft 293 kts 241°
2026-04-27 05:56 60.05689 4.69159 13393 ft 293 kts 241°
2026-04-27 05:57 60.04679 4.65665 13690 ft 294 kts 241°
2026-04-27 05:57 60.03652 4.62122 13994 ft 295 kts 241°
2026-04-27 05:57 60.02621 4.58571 14274 ft 296 kts 241°
2026-04-27 05:57 60.01585 4.55010 14550 ft 297 kts 241°
2026-04-27 05:58 60.00546 4.51441 14841 ft 298 kts 241°
2026-04-27 05:58 59.99500 4.47855 15106 ft 299 kts 241°
2026-04-27 05:58 59.98453 4.44267 15386 ft 300 kts 241°
2026-04-27 05:58 59.97402 4.40672 15681 ft 300 kts 241°
2026-04-27 05:59 59.96345 4.37064 15966 ft 301 kts 241°
2026-04-27 05:59 59.95286 4.33453 16272 ft 302 kts 241°
2026-04-27 05:59 59.94222 4.29829 16564 ft 303 kts 241°
2026-04-27 05:59 59.93155 4.26201 16862 ft 304 kts 241°
2026-04-27 06:00 59.91007 4.18911 17472 ft 306 kts 241°
2026-04-27 06:00 59.89925 4.15249 17782 ft 307 kts 241°
2026-04-27 06:00 59.88838 4.11581 18108 ft 308 kts 241°
2026-04-27 06:01 59.87736 4.07923 18434 ft 309 kts 237°
2026-04-27 06:01 59.86302 4.04710 18729 ft 312 kts 225°
2026-04-27 06:01 59.84709 4.01759 19015 ft 314 kts 224°
2026-04-27 06:01 59.83091 3.98837 19300 ft 315 kts 224°
2026-04-27 06:02 59.81465 3.95908 19584 ft 317 kts 224°
2026-04-27 06:02 59.79833 3.92957 19872 ft 318 kts 224°
2026-04-27 06:02 59.78196 3.89985 20162 ft 319 kts 224°
2026-04-27 06:02 59.76557 3.87000 20459 ft 321 kts 224°
2026-04-27 06:03 59.74912 3.84000 20761 ft 322 kts 224°
2026-04-27 06:03 59.73262 3.80988 21063 ft 323 kts 224°
2026-04-27 06:03 59.72168 3.78990 21266 ft 324 kts 224°
2026-04-27 06:03 59.69947 3.74938 21689 ft 325 kts 224°
2026-04-27 06:04 59.68844 3.72926 21890 ft 326 kts 224°
2026-04-27 06:04 59.67175 3.69886 22206 ft 327 kts 224°
2026-04-27 06:04 59.65502 3.66842 22519 ft 328 kts 224°
2026-04-27 06:04 59.63821 3.63786 22848 ft 329 kts 224°
2026-04-27 06:05 59.62135 3.60727 23176 ft 329 kts 224°
2026-04-27 06:05 59.60447 3.57666 23505 ft 330 kts 224°
2026-04-27 06:05 59.58751 3.54596 23836 ft 331 kts 224°
2026-04-27 06:05 59.57047 3.51518 24127 ft 333 kts 224°
2026-04-27 06:06 59.55338 3.48432 24414 ft 334 kts 224°
2026-04-27 06:06 59.53619 3.45334 24700 ft 335 kts 224°
2026-04-27 06:06 59.51896 3.42234 24991 ft 336 kts 224°
2026-04-27 06:06 59.50164 3.39121 25289 ft 338 kts 224°
2026-04-27 06:07 59.48423 3.35997 25586 ft 339 kts 224°
2026-04-27 06:07 59.46680 3.32873 25894 ft 340 kts 224°
2026-04-27 06:07 59.44926 3.29736 26199 ft 341 kts 224°
2026-04-27 06:07 59.43171 3.26600 26514 ft 342 kts 224°
2026-04-27 06:08 59.41406 3.23451 26824 ft 342 kts 224°
2026-04-27 06:08 59.39642 3.20310 27147 ft 343 kts 224°
2026-04-27 06:08 59.37877 3.17170 27446 ft 343 kts 224°
2026-04-27 06:08 59.36112 3.14035 27750 ft 342 kts 224°
2026-04-27 06:09 59.34350 3.10912 28048 ft 341 kts 224°
2026-04-27 06:09 59.32591 3.07797 28338 ft 340 kts 224°
2026-04-27 06:09 59.30838 3.04697 28612 ft 339 kts 224°
2026-04-27 06:09 59.29093 3.01616 28874 ft 337 kts 224°
2026-04-27 06:10 59.27353 2.98549 29120 ft 336 kts 224°
2026-04-27 06:10 59.25619 2.95496 29354 ft 335 kts 224°
2026-04-27 06:10 59.23894 2.92462 29578 ft 333 kts 224°
2026-04-27 06:10 59.22171 2.89437 29787 ft 332 kts 224°
2026-04-27 06:11 59.20456 2.86430 29984 ft 331 kts 224°
2026-04-27 06:11 59.18746 2.83436 30171 ft 331 kts 224°
2026-04-27 06:11 59.17022 2.80421 30374 ft 335 kts 224°
2026-04-27 06:11 59.15278 2.77373 30561 ft 339 kts 224°
2026-04-27 06:12 59.13493 2.74257 30530 ft 350 kts 224°
2026-04-27 06:12 59.11653 2.71051 30538 ft 360 kts 224°
2026-04-27 06:12 59.09760 2.67758 30524 ft 371 kts 224°
2026-04-27 06:12 59.07811 2.64375 30526 ft 380 kts 224°
2026-04-27 06:13 59.03772 2.57382 30523 ft 397 kts 224°
2026-04-27 06:13 58.99582 2.50155 30522 ft 414 kts 224°
2026-04-27 06:14 58.95206 2.42631 30518 ft 428 kts 224°
2026-04-27 06:14 58.90691 2.34898 30704 ft 436 kts 224°
2026-04-27 06:15 58.88427 2.31031 30998 ft 434 kts 224°
2026-04-27 06:15 58.86162 2.27167 31285 ft 434 kts 224°
2026-04-27 06:15 58.83902 2.23316 31547 ft 434 kts 223°
2026-04-27 06:15 58.81636 2.19466 31755 ft 435 kts 223°
2026-04-27 06:16 58.79315 2.15694 31950 ft 437 kts 219°
2026-04-27 06:16 58.76747 2.12532 32159 ft 440 kts 212°
2026-04-27 06:16 58.74064 2.09677 32416 ft 440 kts 211°
2026-04-27 06:16 58.71372 2.06858 32619 ft 441 kts 211°
2026-04-27 06:17 58.68668 2.04032 32808 ft 442 kts 211°
2026-04-27 06:17 58.65966 2.01198 33019 ft 443 kts 211°
2026-04-27 06:17 58.63260 1.98348 33224 ft 444 kts 211°
2026-04-27 06:17 58.60555 1.95490 33408 ft 445 kts 211°
2026-04-27 06:18 58.57844 1.92622 33602 ft 445 kts 211°
2026-04-27 06:18 58.55129 1.89749 33802 ft 446 kts 211°
2026-04-27 06:18 58.52413 1.86878 33977 ft 447 kts 211°
2026-04-27 06:18 58.49682 1.83996 34143 ft 448 kts 211°
2026-04-27 06:19 58.46948 1.81116 34313 ft 449 kts 211°
2026-04-27 06:19 58.44199 1.78223 34305 ft 453 kts 211°
2026-04-27 06:19 58.38667 1.72423 34315 ft 453 kts 211°
2026-04-27 06:20 58.33177 1.66692 34307 ft 447 kts 211°
2026-04-27 06:20 58.27732 1.61026 34312 ft 445 kts 212°
2026-04-27 06:21 58.22310 1.55401 34314 ft 443 kts 212°
2026-04-27 06:21 58.16896 1.49804 34314 ft 443 kts 212°
2026-04-27 06:22 58.11476 1.44220 34315 ft 444 kts 212°
2026-04-27 06:22 58.06035 1.38635 34315 ft 446 kts 212°
2026-04-27 06:23 58.00574 1.33049 34318 ft 448 kts 212°
2026-04-27 06:23 57.95080 1.27449 34311 ft 450 kts 212°
2026-04-27 06:24 57.89566 1.21848 34301 ft 451 kts 212°
2026-04-27 06:24 57.84076 1.16293 34301 ft 451 kts 212°
2026-04-27 06:25 57.78550 1.10720 34298 ft 451 kts 212°
2026-04-27 06:25 57.73031 1.05174 34298 ft 451 kts 212°
2026-04-27 06:26 57.67451 0.99581 34315 ft 459 kts 212°
2026-04-27 06:26 57.61787 0.93925 34296 ft 463 kts 212°
2026-04-27 06:27 57.56098 0.88271 34291 ft 464 kts 212°
2026-04-27 06:27 57.50401 0.82629 34294 ft 464 kts 212°
2026-04-27 06:28 57.44700 0.77001 34287 ft 463 kts 212°
2026-04-27 06:28 57.39015 0.71404 34282 ft 463 kts 212°
2026-04-27 06:29 57.33324 0.65828 34279 ft 462 kts 212°
2026-04-27 06:29 57.27644 0.60281 34280 ft 461 kts 212°
2026-04-27 06:30 57.21974 0.54761 34283 ft 461 kts 212°
2026-04-27 06:30 57.16304 0.49260 34279 ft 460 kts 212°
2026-04-27 06:31 57.10638 0.43783 34276 ft 460 kts 212°
2026-04-27 06:31 57.04973 0.38325 34274 ft 459 kts 212°
2026-04-27 06:32 56.99311 0.32889 34276 ft 459 kts 212°
2026-04-27 06:32 56.93645 0.27468 34267 ft 459 kts 212°
2026-04-27 06:33 56.87984 0.22071 34269 ft 459 kts 212°
2026-04-27 06:33 56.82314 0.16684 34265 ft 459 kts 212°
2026-04-27 06:34 56.76646 0.11316 34267 ft 459 kts 212°
2026-04-27 06:34 56.70974 0.05964 34268 ft 459 kts 212°
2026-04-27 06:35 56.65295 0.00623 34261 ft 460 kts 212°
2026-04-27 06:35 56.59611 -0.04704 34262 ft 460 kts 212°
2026-04-27 06:36 56.53925 -0.10015 34261 ft 460 kts 212°
2026-04-27 06:36 56.48230 -0.15316 34258 ft 460 kts 212°
2026-04-27 06:37 56.42576 -0.20562 34259 ft 460 kts 212°
2026-04-27 06:37 56.36876 -0.25832 34257 ft 460 kts 212°
2026-04-27 06:38 56.31168 -0.31091 34259 ft 461 kts 212°
2026-04-27 06:38 56.25459 -0.36335 34260 ft 461 kts 212°
2026-04-27 06:39 56.19741 -0.41568 34265 ft 461 kts 212°
2026-04-27 06:39 56.14016 -0.46790 34276 ft 462 kts 212°
2026-04-27 06:40 56.08286 -0.52000 34258 ft 462 kts 212°
2026-04-27 06:40 56.02549 -0.57198 34259 ft 462 kts 212°
2026-04-27 06:41 55.96806 -0.62385 34268 ft 463 kts 212°
2026-04-27 06:41 55.91061 -0.67555 34267 ft 463 kts 212°
2026-04-27 06:42 55.85311 -0.72712 34263 ft 463 kts 212°
2026-04-27 06:42 55.79552 -0.77861 34266 ft 463 kts 212°
2026-04-27 06:43 55.73790 -0.82996 34269 ft 463 kts 212°
2026-04-27 06:43 55.68022 -0.88119 34270 ft 464 kts 212°
2026-04-27 06:44 55.62246 -0.93231 34272 ft 464 kts 212°
2026-04-27 06:44 55.56461 -0.98336 34279 ft 465 kts 212°
2026-04-27 06:45 55.50667 -1.03430 34277 ft 465 kts 211°
2026-04-27 06:45 55.44899 -1.08485 34282 ft 466 kts 211°
2026-04-27 06:46 55.39086 -1.13563 34292 ft 467 kts 211°
2026-04-27 06:46 55.33266 -1.18631 34285 ft 467 kts 211°
2026-04-27 06:47 55.27429 -1.23696 34287 ft 468 kts 211°
2026-04-27 06:47 55.21590 -1.28746 34292 ft 468 kts 211°
2026-04-27 06:48 55.15740 -1.33790 34298 ft 469 kts 211°
2026-04-27 06:48 55.09883 -1.38822 34304 ft 469 kts 211°
2026-04-27 06:49 55.04014 -1.43848 34313 ft 470 kts 211°
2026-04-27 06:49 54.98137 -1.48866 34315 ft 471 kts 211°
2026-04-27 06:50 54.92254 -1.53871 34316 ft 471 kts 211°
2026-04-27 06:50 54.87348 -1.58033 34315 ft 472 kts 211°
2026-04-27 06:51 54.80480 -1.63840 34305 ft 473 kts 210°
2026-04-27 06:51 54.74557 -1.68830 34297 ft 474 kts 210°
2026-04-27 06:52 54.69588 -1.73005 34291 ft 474 kts 210°
2026-04-27 06:52 54.63646 -1.77981 34297 ft 475 kts 210°
2026-04-27 06:53 54.57696 -1.82948 34293 ft 475 kts 210°
2026-04-27 06:53 54.51738 -1.87905 34296 ft 476 kts 210°
2026-04-27 06:54 54.45765 -1.92858 34308 ft 477 kts 210°
2026-04-27 06:54 54.39784 -1.97803 34301 ft 477 kts 210°
2026-04-27 06:55 54.33796 -2.02737 34307 ft 478 kts 210°
2026-04-27 06:55 54.27795 -2.07666 34303 ft 479 kts 210°
2026-04-27 06:56 54.21781 -2.12590 34313 ft 479 kts 210°
2026-04-27 06:56 54.15761 -2.17502 34310 ft 480 kts 209°
2026-04-27 06:57 54.09779 -2.22369 34316 ft 480 kts 209°
2026-04-27 06:57 54.03710 -2.27292 34315 ft 481 kts 209°
2026-04-27 06:58 53.94439 -2.33785 34320 ft 484 kts 204°
2026-04-27 06:59 53.88115 -2.37726 34329 ft 484 kts 204°
2026-04-27 06:59 53.81802 -2.41722 34324 ft 484 kts 204°
2026-04-27 07:00 53.75504 -2.45748 34325 ft 484 kts 204°
2026-04-27 07:00 53.69209 -2.49765 34328 ft 483 kts 204°
2026-04-27 07:01 53.62919 -2.53760 34335 ft 482 kts 204°
2026-04-27 07:01 53.56640 -2.57726 34337 ft 481 kts 203°
2026-04-27 07:02 53.50373 -2.61672 34334 ft 481 kts 203°
2026-04-27 07:02 53.44112 -2.65604 34340 ft 480 kts 203°
2026-04-27 07:03 53.37860 -2.69525 34349 ft 480 kts 203°
2026-04-27 07:03 53.31607 -2.73441 34348 ft 480 kts 203°
2026-04-27 07:04 53.25354 -2.77345 34347 ft 480 kts 203°
2026-04-27 07:04 53.19096 -2.81239 34346 ft 480 kts 203°
2026-04-27 07:05 53.12837 -2.85122 34347 ft 480 kts 203°
2026-04-27 07:05 53.06510 -2.88384 34337 ft 483 kts 192°
2026-04-27 07:06 52.99722 -2.89122 34342 ft 485 kts 183°
2026-04-27 07:06 52.92977 -2.89497 34320 ft 485 kts 184°
2026-04-27 07:07 52.86323 -2.90395 34322 ft 482 kts 190°
2026-04-27 07:07 52.79700 -2.92062 34316 ft 481 kts 191°
2026-04-27 07:08 52.73076 -2.93670 34319 ft 481 kts 190°
2026-04-27 07:08 52.66412 -2.94678 34332 ft 481 kts 185°
2026-04-27 07:09 52.59727 -2.95155 34324 ft 481 kts 184°
2026-04-27 07:09 52.53042 -2.95623 34321 ft 480 kts 184°
2026-04-27 07:10 52.46375 -2.96148 34323 ft 479 kts 184°
2026-04-27 07:10 52.39723 -2.96697 34324 ft 478 kts 184°
2026-04-27 07:11 52.33080 -2.97246 34315 ft 477 kts 184°
2026-04-27 07:11 52.26455 -2.97788 34314 ft 476 kts 184°
2026-04-27 07:12 52.19847 -2.98327 34319 ft 475 kts 184°
2026-04-27 07:12 52.13255 -2.98863 34314 ft 474 kts 184°
2026-04-27 07:13 52.06671 -2.99396 34314 ft 473 kts 184°
2026-04-27 07:13 52.00099 -2.99927 34300 ft 472 kts 184°
2026-04-27 07:14 51.93537 -3.00455 34286 ft 472 kts 184°
2026-04-27 07:14 51.86986 -3.01041 34274 ft 471 kts 186°
2026-04-27 07:15 51.80492 -3.02324 34265 ft 470 kts 189°
2026-04-27 07:15 51.74012 -3.03780 34265 ft 470 kts 188°
2026-04-27 07:16 51.67531 -3.05177 34263 ft 469 kts 188°
2026-04-27 07:16 51.61061 -3.06524 34283 ft 469 kts 188°
2026-04-27 07:17 51.54587 -3.07861 34286 ft 469 kts 188°
2026-04-27 07:17 51.48125 -3.09193 34323 ft 468 kts 188°
2026-04-27 07:18 51.41666 -3.10524 34313 ft 467 kts 188°
2026-04-27 07:18 51.35229 -3.11846 34317 ft 466 kts 188°
2026-04-27 07:19 51.28793 -3.13166 34328 ft 466 kts 188°
2026-04-27 07:19 51.22365 -3.14483 34320 ft 465 kts 188°
2026-04-27 07:20 51.15951 -3.15792 34313 ft 465 kts 188°
2026-04-27 07:20 51.09543 -3.17097 34316 ft 464 kts 188°
2026-04-27 07:21 51.03184 -3.18387 34307 ft 463 kts 188°
2026-04-27 07:21 50.96791 -3.19682 34312 ft 463 kts 188°
2026-04-27 07:22 50.90406 -3.20971 34327 ft 462 kts 188°
2026-04-27 07:22 50.84025 -3.22255 34312 ft 462 kts 188°
2026-04-27 07:23 50.77652 -3.23535 34319 ft 462 kts 188°
2026-04-27 07:23 50.71280 -3.24811 34312 ft 461 kts 188°
2026-04-27 07:24 50.64916 -3.26081 34310 ft 460 kts 188°
2026-04-27 07:24 50.58565 -3.27346 34316 ft 459 kts 188°
2026-04-27 07:25 50.52237 -3.28603 34311 ft 458 kts 188°
2026-04-27 07:25 50.45922 -3.29854 34304 ft 457 kts 188°
2026-04-27 07:26 50.39623 -3.31098 34296 ft 456 kts 188°
2026-04-27 07:26 50.33407 -3.32897 34295 ft 454 kts 193°
2026-04-27 07:27 50.27246 -3.35059 34292 ft 453 kts 194°
2026-04-27 07:27 50.21094 -3.37198 34300 ft 453 kts 193°
2026-04-27 07:28 50.14942 -3.39282 34291 ft 452 kts 193°
2026-04-27 07:28 50.08803 -3.41339 34289 ft 451 kts 193°
2026-04-27 07:29 50.02669 -3.43386 34284 ft 450 kts 193°
2026-04-27 07:29 49.96552 -3.45425 34281 ft 449 kts 193°
2026-04-27 07:30 49.90447 -3.47456 34291 ft 448 kts 193°
2026-04-27 07:30 49.84352 -3.49478 34274 ft 447 kts 193°
2026-04-27 07:31 49.78267 -3.51492 34272 ft 447 kts 193°
2026-04-27 07:31 49.72215 -3.53583 34270 ft 445 kts 196°
2026-04-27 07:32 49.66264 -3.56173 34273 ft 444 kts 198°
2026-04-27 07:32 49.60347 -3.58845 34266 ft 443 kts 198°
2026-04-27 07:33 49.54471 -3.61466 34269 ft 442 kts 197°
2026-04-27 07:33 49.48562 -3.64068 34260 ft 441 kts 197°
2026-04-27 07:34 49.42667 -3.66648 34272 ft 440 kts 197°
2026-04-27 07:34 49.36771 -3.69219 34261 ft 440 kts 197°
2026-04-27 07:35 49.30884 -3.71781 34259 ft 440 kts 197°
2026-04-27 07:35 49.25001 -3.74335 34266 ft 439 kts 197°
2026-04-27 07:36 49.19124 -3.76881 34264 ft 439 kts 197°
2026-04-27 07:36 49.13249 -3.79420 34256 ft 438 kts 197°
2026-04-27 07:37 49.08374 -3.81521 34253 ft 438 kts 197°
2026-04-27 07:37 49.02516 -3.84041 34255 ft 437 kts 197°
2026-04-27 07:38 48.96669 -3.86550 34253 ft 436 kts 197°
2026-04-27 07:38 48.90826 -3.89051 34255 ft 436 kts 197°
2026-04-27 07:39 48.84990 -3.91543 34247 ft 436 kts 197°
2026-04-27 07:39 48.79153 -3.94029 34247 ft 435 kts 197°
2026-04-27 07:40 48.73323 -3.96507 34238 ft 435 kts 197°
2026-04-27 07:40 48.67490 -3.98979 34239 ft 435 kts 197°
2026-04-27 07:41 48.61654 -4.01447 34237 ft 436 kts 197°
2026-04-27 07:41 48.55814 -4.03911 34243 ft 436 kts 197°
2026-04-27 07:42 48.49972 -4.06370 34238 ft 436 kts 197°
2026-04-27 07:42 48.44128 -4.08824 34237 ft 436 kts 197°
2026-04-27 07:43 48.38282 -4.11272 34240 ft 436 kts 197°
2026-04-27 07:43 48.32428 -4.13718 34236 ft 437 kts 197°
2026-04-27 07:44 48.26571 -4.16160 34227 ft 437 kts 197°
2026-04-27 07:44 48.20706 -4.18599 34218 ft 437 kts 197°
2026-04-27 07:45 48.14840 -4.21033 34216 ft 438 kts 197°
2026-04-27 07:45 48.08972 -4.23462 34213 ft 438 kts 197°
2026-04-27 07:46 48.03103 -4.25885 34209 ft 438 kts 197°
2026-04-27 07:46 47.97227 -4.28306 34205 ft 438 kts 197°
2026-04-27 07:47 47.91392 -4.30704 34216 ft 438 kts 197°
2026-04-27 07:47 47.85519 -4.33112 34211 ft 438 kts 197°
2026-04-27 07:48 47.79646 -4.35514 34209 ft 438 kts 197°
2026-04-27 07:48 47.73775 -4.37910 34207 ft 437 kts 197°
2026-04-27 07:49 47.67907 -4.40299 34211 ft 437 kts 197°
2026-04-27 07:49 47.62039 -4.42683 34211 ft 437 kts 197°
2026-04-27 07:50 47.56168 -4.45062 34207 ft 437 kts 197°
2026-04-27 07:50 47.50301 -4.47434 34214 ft 437 kts 197°
2026-04-27 07:51 47.44434 -4.49800 34210 ft 437 kts 197°
2026-04-27 07:51 47.38567 -4.52162 34208 ft 437 kts 197°
2026-04-27 07:52 47.32704 -4.54516 34211 ft 437 kts 197°
2026-04-27 07:52 47.26845 -4.56863 34208 ft 436 kts 197°
2026-04-27 07:53 47.20986 -4.59205 34212 ft 436 kts 197°
2026-04-27 07:53 47.15129 -4.61541 34209 ft 436 kts 197°
2026-04-27 07:54 47.09280 -4.63868 34206 ft 436 kts 197°
2026-04-27 07:54 47.03421 -4.66147 34207 ft 435 kts 197°
2026-04-27 07:55 46.97560 -4.68390 34207 ft 435 kts 197°
2026-04-27 07:55 46.91704 -4.70628 34213 ft 435 kts 197°
2026-04-27 07:56 46.85856 -4.72863 34212 ft 434 kts 197°
2026-04-27 07:56 46.80003 -4.75098 34209 ft 434 kts 197°
2026-04-27 07:57 46.74161 -4.77323 34212 ft 434 kts 197°
2026-04-27 07:57 46.68319 -4.79544 34209 ft 434 kts 197°
2026-04-27 07:58 46.62484 -4.81758 34213 ft 433 kts 197°
2026-04-27 07:58 46.56651 -4.83965 34212 ft 433 kts 197°
2026-04-27 07:59 46.50822 -4.86166 34209 ft 433 kts 198°
2026-04-27 07:59 46.42088 -4.89455 34211 ft 432 kts 198°
2026-04-27 08:00 46.36268 -4.91641 34208 ft 432 kts 198°
2026-04-27 08:00 46.30460 -4.93817 34210 ft 431 kts 198°
2026-04-27 08:01 46.24643 -4.95993 34214 ft 431 kts 198°
2026-04-27 08:01 46.18831 -4.98161 34209 ft 432 kts 198°
2026-04-27 08:02 46.13017 -5.00325 34218 ft 432 kts 198°
2026-04-27 08:02 46.07194 -5.02489 34212 ft 432 kts 198°
2026-04-27 08:03 46.01409 -5.04633 34211 ft 432 kts 198°
2026-04-27 08:03 45.95583 -5.06787 34209 ft 432 kts 198°
2026-04-27 08:04 45.89755 -5.08938 34208 ft 432 kts 198°
2026-04-27 08:04 45.83925 -5.11085 34211 ft 432 kts 198°
2026-04-27 08:05 45.78099 -5.13225 34213 ft 432 kts 198°
2026-04-27 08:05 45.72269 -5.15363 34213 ft 432 kts 198°
2026-04-27 08:06 45.66440 -5.17496 34213 ft 432 kts 198°
2026-04-27 08:06 45.60613 -5.19623 34210 ft 432 kts 198°
2026-04-27 08:07 45.54786 -5.21746 34204 ft 432 kts 198°
2026-04-27 08:07 45.48954 -5.23866 34207 ft 432 kts 198°
2026-04-27 08:08 45.43123 -5.25981 34210 ft 432 kts 198°
2026-04-27 08:08 45.37292 -5.28091 34206 ft 432 kts 198°
2026-04-27 08:09 45.31506 -5.30181 34205 ft 432 kts 198°
2026-04-27 08:09 45.25638 -5.32296 34203 ft 432 kts 198°
2026-04-27 08:10 45.19856 -5.34376 34205 ft 432 kts 198°
2026-04-27 08:10 45.14034 -5.36465 34206 ft 432 kts 198°
2026-04-27 08:11 45.08212 -5.38550 34202 ft 431 kts 198°
2026-04-27 08:11 45.02392 -5.40631 34203 ft 431 kts 198°
2026-04-27 08:12 44.96573 -5.42706 34202 ft 431 kts 198°
2026-04-27 08:12 44.90763 -5.44774 34197 ft 431 kts 198°
2026-04-27 08:13 44.84950 -5.46838 34198 ft 430 kts 198°
2026-04-27 08:13 44.79147 -5.48895 34193 ft 430 kts 198°
2026-04-27 08:14 44.73350 -5.50945 34196 ft 429 kts 199°
2026-04-27 08:14 44.67569 -5.52986 34191 ft 428 kts 199°
2026-04-27 08:15 44.61806 -5.55031 34200 ft 426 kts 200°
2026-04-27 08:15 44.56383 -5.58053 34200 ft 421 kts 208°
2026-04-27 08:16 44.51041 -5.61411 34196 ft 421 kts 208°
2026-04-27 08:16 44.45685 -5.64776 34054 ft 424 kts 208°
2026-04-27 08:17 44.43004 -5.66439 34163 ft 420 kts 207°
2026-04-27 08:17 44.40341 -5.68123 34234 ft 421 kts 208°
2026-04-27 08:17 44.34957 -5.71453 34179 ft 420 kts 208°
2026-04-27 08:18 44.29722 -5.74684 34185 ft 404 kts 208°
2026-04-27 08:18 44.24668 -5.77767 34184 ft 390 kts 208°
2026-04-27 08:19 44.19782 -5.80741 34188 ft 376 kts 208°
2026-04-27 08:19 44.15070 -5.83611 34187 ft 364 kts 208°
2026-04-27 08:20 44.10494 -5.86395 34186 ft 353 kts 208°
2026-04-27 08:20 44.06070 -5.89084 34185 ft 341 kts 208°
2026-04-27 08:21 44.01752 -5.91655 34204 ft 344 kts 207°
2026-04-27 08:21 43.97308 -5.94313 34208 ft 351 kts 207°
2026-04-27 08:22 43.92775 -5.97053 34202 ft 359 kts 207°
2026-04-27 08:22 43.88938 -5.99372 34202 ft 365 kts 207°
2026-04-27 08:23 43.83430 -6.02694 34196 ft 373 kts 207°
2026-04-27 08:23 43.79439 -6.05096 34193 ft 379 kts 207°
2026-04-27 08:24 43.74559 -6.08028 34191 ft 386 kts 207°
2026-04-27 08:24 43.69563 -6.11025 34193 ft 398 kts 207°
2026-04-27 08:25 43.64402 -6.14117 34195 ft 411 kts 206°
2026-04-27 08:25 43.59081 -6.17297 34193 ft 422 kts 206°
2026-04-27 08:26 43.53623 -6.20551 34189 ft 432 kts 206°
2026-04-27 08:26 43.48068 -6.23854 34179 ft 436 kts 206°
2026-04-27 08:27 43.42488 -6.27165 34167 ft 437 kts 206°
2026-04-27 08:27 43.36896 -6.30479 34163 ft 438 kts 206°
2026-04-27 08:28 43.31298 -6.33790 34163 ft 438 kts 206°
2026-04-27 08:28 43.25700 -6.37095 34149 ft 437 kts 206°
2026-04-27 08:29 43.20149 -6.40363 34155 ft 437 kts 206°
2026-04-27 08:29 43.14553 -6.43655 34151 ft 438 kts 206°
2026-04-27 08:30 43.08958 -6.46939 34153 ft 438 kts 205°
2026-04-27 08:30 43.03305 -6.50249 34123 ft 439 kts 206°
2026-04-27 08:31 42.97688 -6.53532 34143 ft 439 kts 205°
2026-04-27 08:31 42.92102 -6.56790 34134 ft 440 kts 205°
2026-04-27 08:32 42.86430 -6.60093 34119 ft 440 kts 205°
2026-04-27 08:32 42.80828 -6.63347 34116 ft 441 kts 205°
2026-04-27 08:33 42.75179 -6.66623 34118 ft 442 kts 205°
2026-04-27 08:33 42.69521 -6.69897 34113 ft 442 kts 205°
2026-04-27 08:34 42.63856 -6.73169 34119 ft 443 kts 205°
2026-04-27 08:34 42.58175 -6.76443 34118 ft 443 kts 205°
2026-04-27 08:35 42.52491 -6.79713 34110 ft 444 kts 205°
2026-04-27 08:35 42.46800 -6.82981 34118 ft 445 kts 205°
2026-04-27 08:36 42.41099 -6.86247 34112 ft 445 kts 205°
2026-04-27 08:36 42.35393 -6.89510 34119 ft 445 kts 205°
2026-04-27 08:37 42.29679 -6.92771 34126 ft 446 kts 205°
2026-04-27 08:37 42.23956 -6.96031 34120 ft 447 kts 205°
2026-04-27 08:38 42.18229 -6.99286 34121 ft 447 kts 205°
2026-04-27 08:38 42.12498 -7.02537 34116 ft 448 kts 205°
2026-04-27 08:39 42.06747 -7.05794 34106 ft 448 kts 205°
2026-04-27 08:39 42.00994 -7.09045 34111 ft 449 kts 205°
2026-04-27 08:40 41.95239 -7.12291 34107 ft 449 kts 205°
2026-04-27 08:40 41.89476 -7.15535 34101 ft 449 kts 205°
2026-04-27 08:41 41.83702 -7.18779 34100 ft 450 kts 205°
2026-04-27 08:41 41.77919 -7.22022 34097 ft 451 kts 205°
2026-04-27 08:42 41.72307 -7.25696 34125 ft 448 kts 212°
2026-04-27 08:42 41.66960 -7.30018 34102 ft 449 kts 213°
2026-04-27 08:43 41.61661 -7.34318 34093 ft 449 kts 213°
2026-04-27 08:43 41.56298 -7.38625 34102 ft 449 kts 212°
2026-04-27 08:44 41.50935 -7.42900 34095 ft 449 kts 212°
2026-04-27 08:44 41.45565 -7.47164 34094 ft 449 kts 212°
2026-04-27 08:45 41.40196 -7.51420 34092 ft 449 kts 212°
2026-04-27 08:45 41.34824 -7.55670 34086 ft 449 kts 212°
2026-04-27 08:46 41.29453 -7.59911 34082 ft 449 kts 212°
2026-04-27 08:46 41.24085 -7.64143 34084 ft 449 kts 212°
2026-04-27 08:47 41.18716 -7.68366 34089 ft 449 kts 212°
2026-04-27 08:47 41.13341 -7.72588 34087 ft 449 kts 212°
2026-04-27 08:48 41.07967 -7.76799 34081 ft 448 kts 212°
2026-04-27 08:48 41.02596 -7.81000 34085 ft 448 kts 212°
2026-04-27 08:49 40.97230 -7.85189 34077 ft 448 kts 212°
2026-04-27 08:49 40.91859 -7.89374 34073 ft 448 kts 212°
2026-04-27 08:50 40.86489 -7.93551 34072 ft 448 kts 212°
2026-04-27 08:50 40.81126 -7.97714 34070 ft 447 kts 212°
2026-04-27 08:51 40.75761 -8.01870 34066 ft 447 kts 212°
2026-04-27 08:51 40.70400 -8.06017 34064 ft 447 kts 212°
2026-04-27 08:52 40.65041 -8.10153 34058 ft 446 kts 212°
2026-04-27 08:52 40.59683 -8.14281 34064 ft 446 kts 212°
2026-04-27 08:53 40.54360 -8.18374 34056 ft 446 kts 212°
2026-04-27 08:53 40.48999 -8.22489 34068 ft 447 kts 212°
2026-04-27 08:54 40.43625 -8.26606 34066 ft 448 kts 212°
2026-04-27 08:54 40.38240 -8.30724 34064 ft 448 kts 212°
2026-04-27 08:55 40.32845 -8.34842 34062 ft 449 kts 212°
2026-04-27 08:55 40.27446 -8.38955 34060 ft 449 kts 211°
2026-04-27 08:56 40.22037 -8.43068 34054 ft 449 kts 211°
2026-04-27 08:56 40.16635 -8.47168 34059 ft 449 kts 211°
2026-04-27 08:57 40.08530 -8.53305 34062 ft 449 kts 211°
2026-04-27 08:58 40.03122 -8.57391 34061 ft 449 kts 211°
2026-04-27 08:58 39.97719 -8.61465 34058 ft 449 kts 211°
2026-04-27 08:59 39.92312 -8.65535 34056 ft 449 kts 211°
2026-04-27 08:59 39.86902 -8.69599 34057 ft 449 kts 211°
2026-04-27 09:00 39.81490 -8.73658 34049 ft 449 kts 211°
2026-04-27 09:00 39.76113 -8.77683 34038 ft 449 kts 211°
2026-04-27 09:01 39.70699 -8.81728 34050 ft 449 kts 211°
2026-04-27 09:01 39.65282 -8.85768 34050 ft 449 kts 211°
2026-04-27 09:02 39.59867 -8.89800 34051 ft 449 kts 210°
2026-04-27 09:02 39.54442 -8.93831 34054 ft 449 kts 210°
2026-04-27 09:03 39.49018 -8.97854 34051 ft 450 kts 210°
2026-04-27 09:03 39.43588 -9.01874 34054 ft 450 kts 210°
2026-04-27 09:04 39.38154 -9.05891 34059 ft 450 kts 210°
2026-04-27 09:04 39.32719 -9.09900 34057 ft 450 kts 210°
2026-04-27 09:05 39.27281 -9.13905 34056 ft 450 kts 210°
2026-04-27 09:05 39.21837 -9.17907 34053 ft 450 kts 210°
2026-04-27 09:06 39.16402 -9.21894 34051 ft 450 kts 210°
2026-04-27 09:06 39.10960 -9.25880 34039 ft 450 kts 210°
2026-04-27 09:07 39.05520 -9.29857 34041 ft 450 kts 210°
2026-04-27 09:07 39.00079 -9.33828 34026 ft 450 kts 210°
2026-04-27 09:08 38.94639 -9.37792 34027 ft 450 kts 210°
2026-04-27 09:08 38.89192 -9.41752 34021 ft 450 kts 210°
2026-04-27 09:09 38.83747 -9.45705 34024 ft 450 kts 209°
2026-04-27 09:09 38.78341 -9.49623 34025 ft 445 kts 209°
2026-04-27 09:10 38.72937 -9.53532 34034 ft 447 kts 209°
2026-04-27 09:10 38.68423 -9.56791 34033 ft 449 kts 209°
2026-04-27 09:11 38.62977 -9.60718 34030 ft 450 kts 209°
2026-04-27 09:11 38.57524 -9.64643 34036 ft 451 kts 209°
2026-04-27 09:12 38.52054 -9.68573 34039 ft 451 kts 209°
2026-04-27 09:12 38.46585 -9.72496 34049 ft 451 kts 209°
2026-04-27 09:13 38.41108 -9.76417 34042 ft 451 kts 209°
2026-04-27 09:13 38.35630 -9.80332 34050 ft 452 kts 208°
2026-04-27 09:14 38.30144 -9.84247 34051 ft 452 kts 208°
2026-04-27 09:14 38.24703 -9.88122 34048 ft 451 kts 208°
2026-04-27 09:15 38.19219 -9.92021 34046 ft 451 kts 208°
2026-04-27 09:15 38.13741 -9.95909 34045 ft 451 kts 208°
2026-04-27 09:16 38.08263 -9.99790 34046 ft 451 kts 208°
2026-04-27 09:16 38.02789 -10.03661 34189 ft 452 kts 208°
2026-04-27 09:16 38.00048 -10.05597 34452 ft 449 kts 208°
2026-04-27 09:17 37.97325 -10.07519 34702 ft 447 kts 208°
2026-04-27 09:17 37.94605 -10.09438 34911 ft 446 kts 208°
2026-04-27 09:17 37.91893 -10.11349 35034 ft 447 kts 208°
2026-04-27 09:18 37.86445 -10.15182 35044 ft 449 kts 208°
2026-04-27 09:18 37.80982 -10.19020 35050 ft 449 kts 208°
2026-04-27 09:19 37.75510 -10.22858 35048 ft 450 kts 208°
2026-04-27 09:19 37.70033 -10.26692 35045 ft 450 kts 208°
2026-04-27 09:20 37.64558 -10.30519 35051 ft 450 kts 208°
2026-04-27 09:20 37.59114 -10.34317 35048 ft 450 kts 208°
2026-04-27 09:21 37.53636 -10.38132 35049 ft 450 kts 208°
2026-04-27 09:21 37.48158 -10.41941 35050 ft 450 kts 208°
2026-04-27 09:22 37.42682 -10.45743 35052 ft 449 kts 208°
2026-04-27 09:22 37.37208 -10.49536 35050 ft 449 kts 208°
2026-04-27 09:23 37.31704 -10.53344 35050 ft 449 kts 208°
2026-04-27 09:23 37.26267 -10.57099 35050 ft 449 kts 207°
2026-04-27 09:24 37.20792 -10.60874 35053 ft 449 kts 207°
2026-04-27 09:24 37.15308 -10.64649 35050 ft 450 kts 207°
2026-04-27 09:25 37.09819 -10.68421 35051 ft 450 kts 207°
2026-04-27 09:25 37.04323 -10.72192 35054 ft 451 kts 207°
2026-04-27 09:26 36.98822 -10.75960 35052 ft 451 kts 207°
2026-04-27 09:26 36.93312 -10.79727 35054 ft 451 kts 207°
2026-04-27 09:27 36.87800 -10.83490 35052 ft 452 kts 207°
2026-04-27 09:27 36.82281 -10.87252 35050 ft 452 kts 207°
2026-04-27 09:28 36.76758 -10.91010 35048 ft 452 kts 207°
2026-04-27 09:28 36.71237 -10.94760 35050 ft 452 kts 207°
2026-04-27 09:29 36.65713 -10.98506 35049 ft 452 kts 208°
2026-04-27 09:29 36.60199 -11.02239 35045 ft 451 kts 208°
2026-04-27 09:30 36.54680 -11.05969 35042 ft 451 kts 208°
2026-04-27 09:30 36.49166 -11.09691 35046 ft 451 kts 208°
2026-04-27 09:31 36.43655 -11.13404 35044 ft 450 kts 208°
2026-04-27 09:31 36.38148 -11.17108 35048 ft 450 kts 208°
2026-04-27 09:32 36.32649 -11.20801 35045 ft 449 kts 208°
2026-04-27 09:32 36.27186 -11.24463 35043 ft 449 kts 208°
2026-04-27 09:33 36.21696 -11.28138 35040 ft 448 kts 208°
2026-04-27 09:33 36.16210 -11.31805 35041 ft 448 kts 208°
2026-04-27 09:34 36.10725 -11.35465 35042 ft 448 kts 208°
2026-04-27 09:34 36.05247 -11.39115 35037 ft 447 kts 208°
2026-04-27 09:35 35.99770 -11.42760 35037 ft 447 kts 208°
2026-04-27 09:35 35.94410 -11.46638 35042 ft 447 kts 214°
2026-04-27 09:36 35.89352 -11.51103 35036 ft 447 kts 215°
2026-04-27 09:36 35.84321 -11.55623 35039 ft 447 kts 215°
2026-04-27 09:37 35.79269 -11.60102 35038 ft 447 kts 214°
2026-04-27 09:37 35.74203 -11.64548 35038 ft 447 kts 214°
2026-04-27 09:38 35.69127 -11.68983 35041 ft 447 kts 214°
2026-04-27 09:38 35.64048 -11.73413 35038 ft 447 kts 214°
2026-04-27 09:39 35.58971 -11.77836 35038 ft 448 kts 214°
2026-04-27 09:39 35.53888 -11.82257 35038 ft 448 kts 214°
2026-04-27 09:40 35.48838 -11.86644 35038 ft 448 kts 214°
2026-04-27 09:40 35.43752 -11.91054 35039 ft 448 kts 214°
2026-04-27 09:41 35.38663 -11.95460 35040 ft 448 kts 214°
2026-04-27 09:41 35.33576 -11.99858 35041 ft 447 kts 214°
2026-04-27 09:42 35.28491 -12.04247 35041 ft 447 kts 214°
2026-04-27 09:42 35.23402 -12.08632 35044 ft 447 kts 214°
2026-04-27 09:43 35.18317 -12.13008 35043 ft 447 kts 214°
2026-04-27 09:43 35.13237 -12.17371 35044 ft 446 kts 214°
2026-04-27 09:44 35.08152 -12.21732 35043 ft 446 kts 214°
2026-04-27 09:44 35.03073 -12.26083 35044 ft 446 kts 214°
2026-04-27 09:45 34.97993 -12.30427 35046 ft 446 kts 214°
2026-04-27 09:45 34.92904 -12.34772 35048 ft 446 kts 214°
2026-04-27 09:46 34.87816 -12.39108 35048 ft 447 kts 214°
2026-04-27 09:46 34.82721 -12.43445 35051 ft 447 kts 214°
2026-04-27 09:47 34.77620 -12.47779 35058 ft 447 kts 214°
2026-04-27 09:47 34.72523 -12.52105 35050 ft 447 kts 214°
2026-04-27 09:48 34.67420 -12.56428 35051 ft 447 kts 214°
2026-04-27 09:48 34.62315 -12.60746 35051 ft 447 kts 214°
2026-04-27 09:49 34.57208 -12.65060 35052 ft 447 kts 213°
2026-04-27 09:49 34.52096 -12.69372 35054 ft 447 kts 213°
2026-04-27 09:50 34.47018 -12.73647 35055 ft 447 kts 213°
2026-04-27 09:50 34.41908 -12.77945 35056 ft 448 kts 213°
2026-04-27 09:51 34.36788 -12.82244 35056 ft 448 kts 213°
2026-04-27 09:51 34.31669 -12.86537 35057 ft 448 kts 213°
2026-04-27 09:52 34.26544 -12.90826 35063 ft 448 kts 213°
2026-04-27 09:52 34.21430 -12.95124 35053 ft 448 kts 214°
2026-04-27 09:53 34.16322 -12.99432 35057 ft 448 kts 214°
2026-04-27 09:53 34.11207 -13.03740 35058 ft 448 kts 214°
2026-04-27 09:54 34.06093 -13.08037 35066 ft 448 kts 214°
2026-04-27 09:54 34.00973 -13.12332 35059 ft 448 kts 214°
2026-04-27 09:55 33.95855 -13.16619 35058 ft 448 kts 214°
2026-04-27 09:55 33.88252 -13.22976 35015 ft 426 kts 214°
2026-04-27 09:56 33.85813 -13.24952 34507 ft 422 kts 213°
2026-04-27 09:56 33.83404 -13.26924 34260 ft 413 kts 214°
2026-04-27 09:56 33.81070 -13.28893 33670 ft 410 kts 214°
2026-04-27 09:56 33.78731 -13.30920 32769 ft 416 kts 215°
2026-04-27 09:57 33.76398 -13.32932 32307 ft 410 kts 214°
2026-04-27 09:57 33.74104 -13.34872 32297 ft 394 kts 214°
2026-04-27 09:57 33.71898 -13.36710 32221 ft 380 kts 213°
2026-04-27 09:57 33.69721 -13.38497 31728 ft 379 kts 213°
2026-04-27 09:58 33.67525 -13.40283 30903 ft 386 kts 213°
2026-04-27 09:58 33.65267 -13.42099 30020 ft 395 kts 213°
2026-04-27 09:58 33.63745 -13.43312 29546 ft 396 kts 213°
2026-04-27 09:58 33.61483 -13.45102 29470 ft 381 kts 212°
2026-04-27 09:59 33.59311 -13.46773 29702 ft 360 kts 212°
2026-04-27 09:59 33.57221 -13.48332 29547 ft 350 kts 211°
2026-04-27 09:59 33.55120 -13.49871 28780 ft 357 kts 211°
2026-04-27 09:59 33.52999 -13.51410 28346 ft 354 kts 211°
2026-04-27 10:00 33.50952 -13.52960 28291 ft 341 kts 213°
2026-04-27 10:00 33.49004 -13.54509 28057 ft 334 kts 214°
2026-04-27 10:00 33.47087 -13.56089 27627 ft 333 kts 215°
2026-04-27 10:00 33.45174 -13.57710 26659 ft 347 kts 216°
2026-04-27 10:01 33.43136 -13.59475 25279 ft 375 kts 217°
2026-04-27 10:01 33.41075 -13.61535 24295 ft 391 kts 221°
2026-04-27 10:01 33.38950 -13.63490 24240 ft 377 kts 215°
2026-04-27 10:01 33.36803 -13.65117 24457 ft 355 kts 211°
2026-04-27 10:02 33.34739 -13.66638 24314 ft 345 kts 220°
2026-04-27 10:02 33.33019 -13.68703 23299 ft 361 kts 230°
2026-04-27 10:02 33.31273 -13.70920 22640 ft 366 kts 225°
2026-04-27 10:02 33.29469 -13.72984 22651 ft 350 kts 224°
2026-04-27 10:03 33.27817 -13.75029 22561 ft 338 kts 233°
2026-04-27 10:03 33.26442 -13.77348 21740 ft 348 kts 237°
2026-04-27 10:03 33.25067 -13.79793 20951 ft 358 kts 238°
2026-04-27 10:03 33.23787 -13.82333 20596 ft 354 kts 241°
2026-04-27 10:04 33.22627 -13.84876 20479 ft 343 kts 242°
2026-04-27 10:04 33.21489 -13.87338 20302 ft 335 kts 241°
2026-04-27 10:04 33.20342 -13.89757 19875 ft 335 kts 241°
2026-04-27 10:04 33.19073 -13.92110 19239 ft 342 kts 228°
2026-04-27 10:05 33.17281 -13.94078 18423 ft 357 kts 220°
2026-04-27 10:05 33.15451 -13.96014 18380 ft 342 kts 224°
2026-04-27 10:05 33.13775 -13.97927 17985 ft 340 kts 225°
2026-04-27 10:05 33.11898 -13.99790 16510 ft 368 kts 214°
2026-04-27 10:06 33.09671 -14.01446 15503 ft 382 kts 210°
2026-04-27 10:06 33.07306 -14.03019 14593 ft 393 kts 207°
2026-04-27 10:06 33.04946 -14.04480 14238 ft 377 kts 206°
2026-04-27 10:06 33.02511 -14.05939 13414 ft 388 kts 208°
2026-04-27 10:07 33.00191 -14.07371 13286 ft 371 kts 206°
2026-04-27 10:07 32.97851 -14.08881 12129 ft 390 kts 210°
2026-04-27 10:07 32.95619 -14.10600 12364 ft 363 kts 215°
2026-04-27 10:07 32.93783 -14.12274 13523 ft 308 kts 219°
2026-04-27 10:08 32.91886 -14.13780 12634 ft 346 kts 205°
2026-04-27 10:08 32.89492 -14.14809 11238 ft 390 kts 191°
2026-04-27 10:08 32.86636 -14.15222 10144 ft 428 kts 180°
2026-04-27 10:08 32.83699 -14.15304 10516 ft 411 kts 184°
2026-04-27 10:09 32.81088 -14.15462 12400 ft 357 kts 179°
2026-04-27 10:09 32.78775 -14.15491 13600 ft 313 kts 182°
2026-04-27 10:09 32.76666 -14.15814 13529 ft 304 kts 191°
2026-04-27 10:09 32.74565 -14.16451 12627 ft 322 kts 195°
2026-04-27 10:10 32.72359 -14.17159 12094 ft 328 kts 194°
2026-04-27 10:10 32.70197 -14.17953 11790 ft 325 kts 202°
2026-04-27 10:10 32.68189 -14.19213 11289 ft 329 kts 213°
2026-04-27 10:10 32.66338 -14.20812 10917 ft 329 kts 219°
2026-04-27 10:11 32.64575 -14.22480 10814 ft 318 kts 217°
2026-04-27 10:11 32.62833 -14.24036 10649 ft 311 kts 216°
2026-04-27 10:11 32.61079 -14.25547 10241 ft 313 kts 215°
2026-04-27 10:11 32.59285 -14.27055 9681 ft 320 kts 215°
2026-04-27 10:12 32.57446 -14.28581 9213 ft 323 kts 214°
2026-04-27 10:12 32.55639 -14.30070 8963 ft 318 kts 214°
2026-04-27 10:12 32.53823 -14.31573 8786 ft 310 kts 214°
2026-04-27 10:12 32.52093 -14.33005 8538 ft 306 kts 214°
2026-04-27 10:13 32.50332 -14.34455 8078 ft 312 kts 214°
2026-04-27 10:13 32.48518 -14.35931 7671 ft 319 kts 214°
2026-04-27 10:13 32.46680 -14.37410 7622 ft 319 kts 214°
2026-04-27 10:13 32.44843 -14.38885 8256 ft 316 kts 214°
2026-04-27 10:14 32.43099 -14.40275 9756 ft 286 kts 213°
2026-04-27 10:14 32.41488 -14.41567 10452 ft 293 kts 213°
2026-04-27 10:14 32.39658 -14.42958 10089 ft 322 kts 211°
2026-04-27 10:14 32.37754 -14.44334 9978 ft 318 kts 210°
2026-04-27 10:15 32.35877 -14.45638 9909 ft 309 kts 209°
2026-04-27 10:15 32.34015 -14.46884 9619 ft 307 kts 208°
2026-04-27 10:15 32.32121 -14.48113 9206 ft 315 kts 207°
2026-04-27 10:15 32.30118 -14.49339 9178 ft 334 kts 206°
2026-04-27 10:16 32.28041 -14.50558 9774 ft 342 kts 206°
2026-04-27 10:16 32.25815 -14.51838 9708 ft 358 kts 204°
2026-04-27 10:16 32.23580 -14.53176 9665 ft 366 kts 210°
2026-04-27 10:16 32.21425 -14.54780 9589 ft 363 kts 214°
2026-04-27 10:17 32.19338 -14.56423 9763 ft 357 kts 212°
2026-04-27 10:17 32.17196 -14.57833 10230 ft 350 kts 203°
2026-04-27 10:17 32.14915 -14.58868 10894 ft 351 kts 198°
2026-04-27 10:17 32.12548 -14.59956 10602 ft 376 kts 205°
2026-04-27 10:18 32.10247 -14.61337 10572 ft 365 kts 207°
2026-04-27 10:18 32.08036 -14.62726 10643 ft 356 kts 208°
2026-04-27 10:18 32.05853 -14.64140 10469 ft 360 kts 208°
2026-04-27 10:18 32.03649 -14.65602 9941 ft 368 kts 209°
2026-04-27 10:19 32.01412 -14.67121 9359 ft 371 kts 210°
2026-04-27 10:19 31.99289 -14.68598 9847 ft 342 kts 211°
2026-04-27 10:19 31.97279 -14.70104 9560 ft 346 kts 213°
2026-04-27 10:19 31.95289 -14.71739 9697 ft 355 kts 215°
2026-04-27 10:20 31.93240 -14.73456 9474 ft 369 kts 214°
2026-04-27 10:20 31.91180 -14.75219 9400 ft 361 kts 216°
2026-04-27 10:20 31.89151 -14.76951 9192 ft 359 kts 215°
2026-04-27 10:20 31.87138 -14.78612 9489 ft 345 kts 214°
2026-04-27 10:21 31.85134 -14.80228 9480 ft 365 kts 214°
2026-04-27 10:21 31.83004 -14.81934 9127 ft 368 kts 214°
2026-04-27 10:21 31.80960 -14.83626 9303 ft 350 kts 215°
2026-04-27 10:21 31.78980 -14.85273 9228 ft 349 kts 215°
2026-04-27 10:22 31.77002 -14.86926 9601 ft 351 kts 215°
2026-04-27 10:22 31.75012 -14.88598 10202 ft 355 kts 215°
2026-04-27 10:22 31.72990 -14.90307 10699 ft 362 kts 216°
2026-04-27 10:22 31.70895 -14.92054 10822 ft 373 kts 215°
2026-04-27 10:23 31.68793 -14.93797 10937 ft 365 kts 216°
2026-04-27 10:23 31.66855 -14.95566 11574 ft 352 kts 221°
2026-04-27 10:23 31.65148 -14.97555 12645 ft 340 kts 230°
2026-04-27 10:23 31.63577 -14.99637 13128 ft 353 kts 220°
2026-04-27 10:24 31.61570 -15.01517 12928 ft 381 kts 219°
2026-04-27 10:24 31.59510 -15.03452 13546 ft 379 kts 219°
2026-04-27 10:24 31.57406 -15.05390 13634 ft 389 kts 218°
2026-04-27 10:24 31.55253 -15.07318 13340 ft 388 kts 217°
2026-04-27 10:25 31.53090 -15.09223 12653 ft 392 kts 217°
2026-04-27 10:25 31.50931 -15.11184 12247 ft 386 kts 218°
2026-04-27 10:25 31.48863 -15.13069 12204 ft 371 kts 217°
2026-04-27 10:25 31.46769 -15.14836 11538 ft 374 kts 214°
2026-04-27 10:26 31.44564 -15.16527 10758 ft 381 kts 212°
2026-04-27 10:26 31.42326 -15.18170 10396 ft 375 kts 212°
2026-04-27 10:26 31.40147 -15.19758 10217 ft 364 kts 211°
2026-04-27 10:26 31.38028 -15.21287 10075 ft 353 kts 211°
2026-04-27 10:27 31.35955 -15.22774 9924 ft 346 kts 211°
2026-04-27 10:27 31.33907 -15.24236 9654 ft 347 kts 211°
2026-04-27 10:27 31.31827 -15.25714 9677 ft 352 kts 211°
2026-04-27 10:27 31.29744 -15.27192 10380 ft 343 kts 211°
2026-04-27 10:28 31.27757 -15.28593 11648 ft 328 kts 211°
2026-04-27 10:28 31.25736 -15.29994 11821 ft 352 kts 210°
2026-04-27 10:28 31.23529 -15.31493 11715 ft 379 kts 210°
2026-04-27 10:28 31.21219 -15.33041 11718 ft 384 kts 210°
2026-04-27 10:29 31.18926 -15.34560 11732 ft 372 kts 209°
2026-04-27 10:29 31.16700 -15.36014 11736 ft 364 kts 209°
2026-04-27 10:29 31.14476 -15.37446 11630 ft 367 kts 208°
2026-04-27 10:29 31.12238 -15.38874 11523 ft 365 kts 208°
2026-04-27 10:30 31.10008 -15.40295 11356 ft 366 kts 208°
2026-04-27 10:30 31.07774 -15.41714 11197 ft 365 kts 207°
2026-04-27 10:30 31.05515 -15.43033 11258 ft 362 kts 205°
2026-04-27 10:30 31.03236 -15.44285 11342 ft 361 kts 204°
2026-04-27 10:31 31.00938 -15.45514 11546 ft 365 kts 204°
2026-04-27 10:31 30.98626 -15.46717 12002 ft 365 kts 204°
2026-04-27 10:31 30.96252 -15.47928 12050 ft 381 kts 203°
2026-04-27 10:31 30.93786 -15.49171 11422 ft 390 kts 203°
2026-04-27 10:32 30.91296 -15.50422 11096 ft 386 kts 203°
2026-04-27 10:32 30.88865 -15.51643 10940 ft 377 kts 203°
2026-04-27 10:32 30.86468 -15.52844 10769 ft 370 kts 202°
2026-04-27 10:32 30.84120 -15.54015 10736 ft 367 kts 202°
2026-04-27 10:33 30.81743 -15.55199 10774 ft 379 kts 202°
2026-04-27 10:33 30.79302 -15.56420 11394 ft 381 kts 203°
2026-04-27 10:33 30.76925 -15.57627 12646 ft 363 kts 204°
2026-04-27 10:33 30.74632 -15.58789 13495 ft 366 kts 204°
2026-04-27 10:34 30.72144 -15.60028 12477 ft 414 kts 202°
2026-04-27 10:34 30.69463 -15.61279 13201 ft 408 kts 201°
2026-04-27 10:34 30.66916 -15.62399 14929 ft 372 kts 200°
2026-04-27 10:34 30.64575 -15.63354 16531 ft 350 kts 199°
2026-04-27 10:35 30.62213 -15.64234 16710 ft 369 kts 198°
2026-04-27 10:35 30.59590 -15.65154 15526 ft 421 kts 197°
2026-04-27 10:35 30.56603 -15.66144 14751 ft 457 kts 195°
2026-04-27 10:35 30.53602 -15.67073 15948 ft 439 kts 195°
2026-04-27 10:36 30.50587 -15.68016 15623 ft 460 kts 201°
2026-04-27 10:36 30.47576 -15.69473 15372 ft 476 kts 203°
2026-04-27 10:36 30.44493 -15.70980 15339 ft 484 kts 204°
2026-04-27 10:36 30.41379 -15.72524 15304 ft 489 kts 204°
2026-04-27 10:37 30.38254 -15.74049 15644 ft 485 kts 203°
2026-04-27 10:37 30.35165 -15.75520 15736 ft 489 kts 203°
2026-04-27 10:37 30.32007 -15.77009 15792 ft 490 kts 202°
2026-04-27 10:37 30.28817 -15.78467 15523 ft 494 kts 201°
2026-04-27 10:38 30.25641 -15.79833 16154 ft 480 kts 200°
2026-04-27 10:38 30.22510 -15.81000 17044 ft 468 kts 197°
2026-04-27 10:38 30.19307 -15.81981 17223 ft 474 kts 194°
2026-04-27 10:38 30.16148 -15.83047 17004 ft 485 kts 203°
2026-04-27 10:39 30.13046 -15.84592 17360 ft 482 kts 204°
2026-04-27 10:39 30.09956 -15.86116 17555 ft 485 kts 204°
2026-04-27 10:39 30.06881 -15.87769 17610 ft 490 kts 206°
2026-04-27 10:39 30.03810 -15.89493 17710 ft 493 kts 206°
2026-04-27 10:40 30.00670 -15.91258 17602 ft 499 kts 207°
2026-04-27 10:40 29.97604 -15.93031 17673 ft 499 kts 207°
2026-04-27 10:40 29.94423 -15.94790 17512 ft 502 kts 204°
2026-04-27 10:40 29.91290 -15.96407 17498 ft 500 kts 202°
2026-04-27 10:41 29.88011 -15.97786 16803 ft 503 kts 207°
2026-04-27 10:41 29.84811 -15.99439 16715 ft 497 kts 201°
2026-04-27 10:41 29.81511 -16.00696 15127 ft 505 kts 195°
2026-04-27 10:41 29.78259 -16.01886 14903 ft 487 kts 203°
2026-04-27 10:42 29.75233 -16.03473 15729 ft 470 kts 205°
2026-04-27 10:42 29.72226 -16.04980 15669 ft 480 kts 203°
2026-04-27 10:42 29.69094 -16.06432 15629 ft 482 kts 202°
2026-04-27 10:42 29.66047 -16.07793 16542 ft 466 kts 201°
2026-04-27 10:43 29.62912 -16.09168 14713 ft 497 kts 201°
2026-04-27 10:43 29.59727 -16.10578 14535 ft 486 kts 202°
2026-04-27 10:43 29.56660 -16.12196 14211 ft 484 kts 206°
2026-04-27 10:43 29.53591 -16.13742 13933 ft 483 kts 201°
2026-04-27 10:44 29.50450 -16.15132 13220 ft 482 kts 200°
2026-04-27 10:44 29.47327 -16.16454 12975 ft 476 kts 201°
2026-04-27 10:44 29.44288 -16.17966 12136 ft 478 kts 205°
2026-04-27 10:44 29.41261 -16.19521 11188 ft 473 kts 203°
2026-04-27 10:45 29.39298 -16.20561 11070 ft 466 kts 205°
2026-04-27 10:45 29.36346 -16.22099 10227 ft 468 kts 201°
2026-04-27 10:45 29.33371 -16.23555 9934 ft 458 kts 204°
2026-04-27 10:45 29.30504 -16.25040 10240 ft 456 kts 204°
2026-04-27 10:46 29.27631 -16.26610 10223 ft 455 kts 206°
2026-04-27 10:46 29.24807 -16.28210 10606 ft 454 kts 206°
2026-04-27 10:46 29.21962 -16.29878 10012 ft 463 kts 207°
2026-04-27 10:46 29.19130 -16.31579 9817 ft 457 kts 207°
2026-04-27 10:47 29.16347 -16.33257 10006 ft 440 kts 209°
2026-04-27 10:47 29.13781 -16.34962 9962 ft 417 kts 210°
2026-04-27 10:47 29.11328 -16.36593 9963 ft 394 kts 209°
2026-04-27 10:47 29.08993 -16.38080 10063 ft 385 kts 208°
2026-04-27 10:48 29.06492 -16.39629 9593 ft 429 kts 207°
2026-04-27 10:48 29.03746 -16.41259 9504 ft 451 kts 206°
2026-04-27 10:48 29.00932 -16.42815 10158 ft 452 kts 205°
2026-04-27 10:48 28.98050 -16.44367 10045 ft 462 kts 205°
2026-04-27 10:49 28.95158 -16.45960 9940 ft 461 kts 205°
2026-04-27 10:49 28.92238 -16.47476 9502 ft 462 kts 203°
2026-04-27 10:49 28.89310 -16.48877 9624 ft 456 kts 202°
2026-04-27 10:49 28.86390 -16.50316 9470 ft 454 kts 202°
2026-04-27 10:50 28.83447 -16.51566 9843 ft 451 kts 197°
2026-04-27 10:50 28.80444 -16.52635 10165 ft 452 kts 197°
2026-04-27 10:50 28.77487 -16.53682 10718 ft 451 kts 197°
2026-04-27 10:50 28.74414 -16.54714 10996 ft 456 kts 196°
2026-04-27 10:51 28.71408 -16.55677 12142 ft 439 kts 195°
2026-04-27 10:51 28.68500 -16.56610 12949 ft 442 kts 196°
2026-04-27 10:51 28.65433 -16.57605 13029 ft 459 kts 196°
2026-04-27 10:51 28.62325 -16.58649 13139 ft 470 kts 197°
2026-04-27 10:52 28.59209 -16.59659 13116 ft 474 kts 195°
2026-04-27 10:52 28.56020 -16.60608 13111 ft 474 kts 194°
2026-04-27 10:52 28.52817 -16.61494 13077 ft 473 kts 193°
2026-04-27 10:52 28.49616 -16.62372 13031 ft 473 kts 194°
2026-04-27 10:53 28.46417 -16.63277 12672 ft 476 kts 195°
2026-04-27 10:53 28.40195 -16.65314 12879 ft 468 kts 197°
2026-04-27 10:53 28.37076 -16.66409 12494 ft 471 kts 198°
2026-04-27 10:54 28.34032 -16.67567 12147 ft 456 kts 199°
2026-04-27 10:54 28.31039 -16.68717 11612 ft 448 kts 199°
2026-04-27 10:54 28.28125 -16.69860 11000 ft 438 kts 200°
2026-04-27 10:54 28.25306 -16.71031 10452 ft 423 kts 200°
2026-04-27 10:55 28.22611 -16.72165 9740 ft 404 kts 199°
2026-04-27 10:55 28.19940 -16.73027 8812 ft 394 kts 194°
2026-04-27 10:55 28.17320 -16.73780 8054 ft 382 kts 194°
2026-04-27 10:55 28.14779 -16.74496 7229 ft 373 kts 193°
2026-04-27 10:56 28.12222 -16.75053 6036 ft 376 kts 181°
2026-04-27 10:56 28.09709 -16.74695 5731 ft 351 kts 165°
2026-04-27 10:56 28.07423 -16.74035 5554 ft 329 kts 165°
2026-04-27 10:56 28.05255 -16.73394 4988 ft 321 kts 162°
2026-04-27 10:57 28.03121 -16.72513 3872 ft 331 kts 156°
2026-04-27 10:57 28.01185 -16.71244 3486 ft 307 kts 136°
2026-04-27 10:57 28.00289 -16.69301 3018 ft 272 kts 86°
2026-04-27 10:57 28.00922 -16.67416 2648 ft 246 kts 65°
2026-04-27 10:58 28.01515 -16.65686 2233 ft 229 kts 72°
2026-04-27 10:58 28.01990 -16.64133 1917 ft 193 kts 66°
2026-04-27 10:58 28.02443 -16.62676 1017 ft 199 kts 71°
2026-04-27 10:58 28.02958 -16.61331 707 ft 176 kts 64°
2026-04-27 10:59 28.03460 -16.60138 409 ft 161 kts 70°
2026-04-27 10:59 28.03832 -16.59044 293 ft 135 kts 71°
2026-04-27 10:59 28.04140 -16.58143 209 ft 96 kts 66°
2026-04-27 11:00 28.04293 -16.57759 204 ft 10 kts 16°
2026-04-27 11:00 28.04309 -16.57785 204 ft 5 kts 266°
2026-04-27 11:00 28.04305 -16.57856 207 ft 15 kts 266°
2026-04-27 11:00 28.04297 -16.58004 200 ft 23 kts 267°
2026-04-27 11:01 28.04294 -16.58109 207 ft 16 kts 276°
2026-04-27 11:01 28.04355 -16.58125 210 ft 7 kts 51°
2026-04-27 11:01 28.04367 -16.58038 207 ft 16 kts 76°
2026-04-27 11:01 28.04418 -16.57898 207 ft 22 kts 68°
2026-04-27 11:02 28.04469 -16.57791 209 ft 8 kts
2026-04-27 11:02 28.04518 -16.57807 213 ft 5 kts 338°
2026-04-27 11:02 28.04520 -16.57809 212 ft 0 kts 338°